Weather History for Pineville, WV

Change the Weather History Date:

Tuesday, February 26, 2013

  Actual Average (KBKW) Record (KBKW)
Temperature  
Mean Temperature 42 °F 37 °F  
Max Temperature 48 °F 46 °F 75 °F (1917)
Min Temperature 37 °F 28 °F -4 °F (1970)
Degree Days  
Heating Degree Days 22 28  
Month to date heating degree days 801  
Since 1 July heating degree days 3945  
Cooling Degree Days 0 0  
Month to date cooling degree days 0  
Year to date cooling degree days 0  
Moisture  
Dew Point 36 °F    
Average Humidity 79    
Maximum Humidity 100    
Minimum Humidity 57    
Precipitation  
Precipitation 0.00 in 0.10 in 1.40 in (1894)
Month to date precipitation 2.55  
Year to date precipitation 5.36  
Snow  
Snow 0.00 in - - ()
Month to date snowfall  
Since 1 September snowfall  
Snow Depth -    
Sea Level Pressure  
Sea Level Pressure 29.74 in    
Wind  
Wind Speed - (North)    
Max Wind Speed -    
Max Gust Speed -    
Visibility 9 miles    
Events Rain    
T = Trace of Precipitation, MM = Missing Value Source: NWS Daily Summary

Daily Weather History Graph

Daily Weather History Graph

Search for Another Location

Airport:

Trip Planner

Search our weather history database for the weather conditions in past years. The results will help you decide how hot, cold, wet, or windy it might be!

Date:

Astronomy

Feb. 26, 2013 Rise Set
Actual Time 7:01 AM EST 6:17 PM EST
Civil Twilight 6:35 AM EST 6:43 PM EST
Nautical Twilight 6:04 AM EST 7:14 PM EST
Astronomical Twilight 5:34 AM EST 7:44 PM EST
Moon 7:29 PM EST (2/26) 7:05 AM EST (2/26)
Length of Visible Light 12h 08m
Length of Day
11h 15m
Full, 99% of the Moon is Illuminated
Feb 26
Full
Mar 4
Last Quarter
Mar 11
New
Mar 19
First Quarter
Mar 27
Full

Hourly Weather History & Observations

Time (EST) Temp. Dew Point Humidity Pressure Visibility Wind Dir Wind Speed Gust Speed Precip Events Conditions
12:15 AM 39.7 °F 27.0 °F 60% 30.01 in 10.0 mi North - - N/A   Clear
12:35 AM 40.1 °F 26.8 °F 59% 30.01 in 10.0 mi North - - N/A   Clear
12:55 AM 40.1 °F 26.4 °F 58% 30.01 in 10.0 mi North - - N/A   Mostly Cloudy
1:15 AM 40.3 °F 26.4 °F 58% 30.00 in 10.0 mi North - - N/A   Overcast
1:35 AM 40.5 °F 26.4 °F 57% 29.99 in 10.0 mi North - - N/A   Overcast
1:55 AM 40.5 °F 26.4 °F 57% 29.98 in 10.0 mi North - - N/A   Overcast
2:15 AM 40.3 °F 26.1 °F 57% 29.96 in 10.0 mi North - - N/A   Scattered Clouds
2:35 AM 40.1 °F 26.2 °F 58% 29.96 in 10.0 mi North - - N/A   Clear
2:55 AM 40.3 °F 26.2 °F 57% 29.95 in 10.0 mi North - - N/A   Scattered Clouds
3:15 AM 40.3 °F 26.1 °F 57% 29.94 in 10.0 mi North - - N/A   Mostly Cloudy
3:35 AM 40.1 °F 26.4 °F 58% 29.94 in 10.0 mi North - - N/A   Overcast
3:55 AM 40.1 °F 27.5 °F 61% 29.93 in 10.0 mi North - - N/A   Overcast
4:15 AM 39.7 °F 28.0 °F 63% 29.91 in 10.0 mi North - - N/A   Overcast
4:35 AM 39.2 °F 28.4 °F 65% 29.91 in 10.0 mi North - - N/A   Overcast
4:55 AM 39.6 °F 27.7 °F 62% 29.91 in 10.0 mi North - - N/A   Overcast
5:15 AM 39.6 °F 27.5 °F 62% 29.91 in 10.0 mi North - - N/A   Overcast
5:35 AM 39.4 °F 27.7 °F 63% 29.90 in 10.0 mi North - - N/A   Mostly Cloudy
5:55 AM 39.2 °F 27.7 °F 63% 29.89 in 10.0 mi North - - N/A   Scattered Clouds
6:15 AM 39.2 °F 28.0 °F 64% 29.87 in 10.0 mi North - - N/A   Clear
6:35 AM 39.6 °F 28.8 °F 65% 29.87 in 10.0 mi North - - N/A   Scattered Clouds
6:55 AM 39.7 °F 29.5 °F 67% 29.87 in 10.0 mi North - - N/A   Mostly Cloudy
7:15 AM 40.1 °F 29.8 °F 67% 29.86 in 10.0 mi North - - N/A   Overcast
7:35 AM 40.3 °F 31.5 °F 71% 29.85 in 10.0 mi North - - N/A   Overcast
7:55 AM 39.6 °F 32.0 °F 74% 29.84 in 10.0 mi North - - N/A   Overcast
8:15 AM 38.1 °F 32.7 °F 81% 29.84 in 7.0 mi North - - N/A   Overcast
8:35 AM 37.4 °F 33.8 °F 87% 29.84 in 5.0 mi North - - N/A   Overcast
8:55 AM 37.4 °F 33.8 °F 87% 29.84 in 7.0 mi North - - N/A   Overcast
9:15 AM 37.4 °F 34.7 °F 90% 29.83 in 3.0 mi North - - N/A   Overcast
9:35 AM 37.6 °F 35.4 °F 92% 29.82 in 7.0 mi North - - N/A   Overcast
9:55 AM 37.8 °F 35.6 °F 92% 29.80 in 4.0 mi North - - N/A   Overcast
10:15 AM 38.5 °F 36.3 °F 92% 29.78 in 7.0 mi North - - N/A   Overcast
10:35 AM 39.9 °F 37.6 °F 91% 29.75 in 10.0 mi North - - N/A   Overcast
10:55 AM 41.5 °F 37.8 °F 86% 29.75 in 10.0 mi North - - N/A   Overcast
11:15 AM 42.6 °F 37.8 °F 83% 29.72 in 10.0 mi North - - N/A   Overcast
11:35 AM 43.2 °F 38.5 °F 84% 29.71 in 10.0 mi North - - N/A Rain Light Rain
11:55 AM 43.2 °F 39.6 °F 87% 29.69 in 5.0 mi North - - N/A   Overcast
12:15 PM 43.9 °F 40.5 °F 88% 29.67 in 10.0 mi North - - N/A   Overcast
12:35 PM 46.6 °F 41.2 °F 81% 29.66 in 10.0 mi North - - N/A   Overcast
12:55 PM 48.2 °F 41.0 °F 76% 29.65 in 10.0 mi North - - N/A   Overcast
1:35 PM 47.7 °F 40.1 °F 75% 29.62 in 10.0 mi North - - N/A   Overcast
1:55 PM 46.9 °F 40.1 °F 77% 29.61 in 10.0 mi North - - N/A   Overcast
2:15 PM 46.8 °F 40.3 °F 78% 29.60 in 10.0 mi North - - N/A Rain Light Rain
2:35 PM 46.9 °F 40.5 °F 78% 29.60 in 10.0 mi North - - N/A Rain Light Rain
2:55 PM 46.6 °F 40.6 °F 80% 29.59 in 10.0 mi North - - N/A   Overcast
3:15 PM 45.9 °F 41.2 °F 84% 29.59 in 4.0 mi North - - N/A Rain Rain
3:35 PM 45.5 °F 42.8 °F 90% 29.60 in 5.0 mi North - - N/A Rain Light Rain
3:55 PM 45.5 °F 42.8 °F 90% 29.58 in 10.0 mi North - - N/A   Overcast
4:15 PM 45.9 °F 41.9 °F 86% 29.58 in 10.0 mi North - - N/A   Overcast
4:35 PM 46.0 °F 41.4 °F 84% 29.58 in 10.0 mi North - - N/A   Overcast
4:55 PM 46.4 °F 41.0 °F 81% 29.56 in 10.0 mi North - - N/A   Overcast
5:15 PM 46.0 °F 40.5 °F 81% 29.56 in 10.0 mi North - - N/A   Overcast
5:35 PM 46.2 °F 40.5 °F 80% 29.55 in 10.0 mi North - - N/A   Overcast
5:55 PM 45.7 °F 40.3 °F 81% 29.56 in 10.0 mi North - - N/A   Overcast
6:15 PM 45.5 °F 40.1 °F 81% 29.56 in 10.0 mi North - - N/A   Overcast
6:35 PM 45.0 °F 40.3 °F 84% 29.57 in 10.0 mi North - - N/A   Mostly Cloudy
6:55 PM 44.6 °F 40.3 °F 85% 29.57 in 10.0 mi North - - N/A   Mostly Cloudy
7:15 PM 44.6 °F 40.3 °F 85% 29.58 in 10.0 mi North - - N/A   Mostly Cloudy
7:35 PM 44.6 °F 40.5 °F 85% 29.59 in 10.0 mi North - - N/A   Overcast
7:55 PM 44.6 °F 40.6 °F 86% 29.60 in 10.0 mi North - - N/A   Overcast
8:15 PM 44.6 °F 40.8 °F 87% 29.60 in 10.0 mi North - - N/A   Overcast
8:35 PM 43.7 °F 41.2 °F 91% 29.60 in 7.0 mi North - - N/A Rain Light Rain
8:55 PM 43.2 °F 41.9 °F 95% 29.62 in 5.0 mi North - - N/A Rain Light Rain
9:15 PM 43.2 °F 42.4 °F 97% 29.62 in 5.0 mi North - - N/A Rain Light Rain
9:35 PM 42.8 °F 42.3 °F 98% 29.62 in 10.0 mi North - - N/A   Overcast
9:55 PM 42.8 °F 42.4 °F 99% 29.63 in 10.0 mi North - - N/A   Overcast
10:15 PM 42.3 °F 42.1 °F 99% 29.63 in 10.0 mi North - - N/A   Overcast
10:35 PM 41.9 °F 41.9 °F 100% 29.63 in 10.0 mi North - - N/A   Overcast
10:55 PM 41.9 °F 41.9 °F 100% 29.63 in 10.0 mi North - - N/A   Overcast
11:15 PM 41.9 °F 41.9 °F 100% 29.63 in 10.0 mi North - - N/A   Overcast
11:35 PM 42.6 °F 42.6 °F 100% 29.63 in 10.0 mi North - - N/A   Overcast
11:55 PM 42.3 °F 42.3 °F 100% 29.63 in 10.0 mi North - - N/A   Overcast